Weather Roundup
Issued by NWS

Home | Current Version | Previous Version | Graphics & Text | Print | Product List | Glossary Off
Versions: 1 2 3 4 5 6 7 8 9 10 11 12 13 14 15 16 17 18 19 20 21 22 23 24 25 26 27 28 29 30 31 32 33 34 35 36 37 38 39 40 41 42 43 44 45 46 47 48 49 50

234
NZUS93 KARX 230759
HRRWXR

CURRENT HOURLY OBSERVATIONS ACROSS
MUCH OF THE UPPER MISSISSIPPI VALLEY
NATIONAL WEATHER SERVICE LA CROSSE WI
300 AM CDT WED MAY 23 2018


...SOUTHEAST MINNESOTA...


CITY           SKY/WX    TMP DP  RH WIND       PRES   REMARKS
ROCHESTER      FAIR      57  57 100 SE9       30.10S
ROCHESTER/MAYO FAIR      58  58 100 SE9       30.10S
WINONA         FAIR      54  54 100 CALM      30.08S FOG
AUSTIN         MOCLDY    61  57  88 SE3       30.08S
ALBERT LEA     CLOUDY    63  55  77 SE5       30.08R
DODGE CENTER   FAIR      57  55  94 SE8       30.09S
PRESTON        FAIR      57  55  93 SE5       30.11S
OWATONNA       FAIR      61  57  88 SE10      30.07S
FARIBAULT      NOT AVBL
$$

...ELSEWHERE IN MINNESOTA...


CITY           SKY/WX    TMP DP  RH WIND       PRES   REMARKS
MINNEAPOLIS    MOCLDY    62  59  90 SE7       30.07S
INTNL FALLS    FAIR      48  46  93 CALM      30.05R
DULUTH         FAIR      56  52  86 CALM      30.08S
RED WING       FAIR      57  55  94 CALM      30.08S FOG
REDWOOD FALLS  CLOUDY    65  59  81 SE8       30.02R
MANKATO        FAIR      64  59  83 SE13      30.06R
WORTHINGTON    MOCLDY    65  62  90 E10       30.04R
FAIRMONT       LGT RAIN  65  63  93 SW13      30.07R
$$

...SOUTHWEST WISCONSIN...


CITY           SKY/WX    TMP DP  RH WIND       PRES   REMARKS
LA CROSSE      FAIR      56  55  97 SE5       30.10S
PRAIRIE DU CHI FAIR      56  55  95 SE3       30.10S FOG
BOSCOBEL       FOG       55  54  96 CALM      30.11S VSB 1/4
LONE ROCK      FOG       54  54 100 SW3       30.11S VSB 1/2
PLATTEVILLE    FAIR      57  57 100 E6        30.12S
FORT MC COY    FOG       47  47 100 CALM      30.12S VSB 1/4
CAMP DOUGLAS   FOG       48  48 100 CALM      30.11S VSB 1/2
MAUSTON-NEW LI FOG       51  51 100 CALM      30.11S VSB 3/4
VIROQUA        FAIR      58  58 100 S6        30.12R
WIS DELLS        N/A     52  51  95 CALM      30.11S FOG
$$

...ELSEWHERE IN WISCONSIN...


CITY           SKY/WX    TMP DP  RH WIND       PRES   REMARKS
MILWAUKEE      FAIR      50  49  96 CALM      30.11R
MADISON        FOG       52  52 100 CALM      30.11S VSB 1/4
GREEN BAY      FAIR      60  57  89 W6        30.08S
EAU CLAIRE     NOT AVBL
BLACK RVR FLS  FOG       48  48 100 CALM      30.11R VSB 1/4
MEDFORD        FOG       50  50  99 CALM      30.11S VSB 1
WAUSAU         FAIR      56  56 100 NW3       30.10R
WIS RAPIDS     FOG       52  52 100 CALM      30.12S VSB 1/4
MARSHFIELD     FAIR      53  52  96 W3        30.10S FOG
RICE LAKE      FAIR      52  52  99 CALM      30.12R FOG
$$

...NORTHEAST IOWA...


CITY           SKY/WX    TMP DP  RH WIND       PRES   REMARKS
WATERLOO       CLOUDY    65  61  87 SE6       30.07S
DUBUQUE        FAIR      57  55  93 CALM      30.11S
DECORAH        MOCLDY    59  59 100 SE5       30.09F
MASON CITY     LGT RAIN  64  62  93 SE12      30.08F
CHARLES CITY   CLOUDY    64  59  82 SE8       30.09S
OELWEIN        CLOUDY    63  59  88 SE8       30.09F
$$

...ELSEWHERE IN IOWA...


CITY           SKY/WX    TMP DP  RH WIND       PRES   REMARKS
DES MOINES     PTCLDY    67  62  84 SE7       30.03S
IOWA CITY      FAIR      64  59  83 E5        30.10S
FORT DODGE     CLOUDY    69  63  81 S9G17     30.03F
MARSHALLTOWN   CLOUDY    65  62  90 SE10      30.06S
CEDAR RAPIDS   FAIR      62  59  90 SE8       30.08S
$$

...NORTHERN ILLINOIS...


CITY           SKY/WX    TMP DP  RH WIND       PRES   REMARKS
CHICAGO-OHARE  FAIR      53  50  89 CALM      30.10S
CHICAGO-MIDWAY FAIR      53  50  89 CALM      30.11S
MOLINE         FAIR      59  58  96 E5        30.09S
ROCKFORD       FAIR      53  52  96 CALM      30.13R
PEORIA         FAIR      62  60  93 E7        30.10S
$$

NOTE: "FAIR" INDICATES FEW OR NO CLOUDS BELOW 12,000 FEET WITH NO
SIGNIFICANT WEATHER AND/OR OBSTRUCTIONS TO VISIBILITY. WIND
SPEEDS ARE IN MILES-PER-HOUR.




USA.gov is the U.S. government's official web portal to all federal, state and local government web resources and services.